Hauptseite
METAR-TAF:

METAR-TAF

Flughäfen :

Glücksburg, Deutschland

Meierwik

Breite: 54-50N, Länge: 009-30E, Höhe: 27 m

Beobachtung

Neuester Wetterbericht von vor 46 Minuten, um 10:20 UTC
Wind 8 kt aus Süd/Südwest
Temperatur 18°C
Luftfeuchtigkeit 83%
Luftdruck 1006 hPa
Sichtweite 10 km oder mehr
Leicht bewölkt in der Höhe von 1500 ft, Towering cumulus.
Aufgelockert bewölkt in der Höhe von 12000 ft

METAR: ETGG 281020Z 21008KT 9999 FEW015TCU SCT120 18/15 Q1006 BLU+

Zeit: 13:06 (11:06 UTC)


TAF: fehlend

Wetterbeobachtungen und Prognosen von mehr als 4000 Flughäfen (METAR und TAF Bericht).

Die verfügbaren Stationen werden durch gelbe und rote Markierungen auf der Karte dargestellt.

Führen Sie die Maus auf sie, um den Namen der Station zu sehen.

Darauf klicken, um die Beobachtung von Wetterbeobachtungen und Prognosen zu sehen.

Um die Karte zu ändern : klicken Sie auf den grünen Tasten mit einem schwarzen Kreuz Zum Vergrößern, auf den grünen Button mit einem Gedankenstrich zu verkleinern, oder auf die grünen Pfeile für benachbarte Karten.


METAR-TAF: